TimeEDT,TemperatureF,Dew PointF,Humidity,Sea Level PressureIn,VisibilityMPH,Wind Direction,Wind SpeedMPH,Gust SpeedMPH,PrecipitationIn,Events,Conditions,WindDirDegrees,DateUTC
12:53 AM,68.0,57.0,68,29.97,10.0,ESE,5.8,-,N/A,,Clear,120,2013-07-22 04:53:00
1:53 AM,66.9,57.0,70,29.96,10.0,ESE,8.1,-,N/A,,Mostly Cloudy,120,2013-07-22 05:53:00
2:53 AM,66.9,57.9,73,29.97,10.0,WNW,10.4,18.4,N/A,,Overcast,300,2013-07-22 06:53:00
3:53 AM,64.0,61.0,90,29.93,10.0,ENE,8.1,-,0.01,,Scattered Clouds,70,2013-07-22 07:53:00
4:53 AM,64.9,61.0,87,29.92,10.0,ENE,5.8,-,N/A,,Overcast,70,2013-07-22 08:53:00
5:53 AM,64.9,60.1,84,29.91,10.0,ESE,8.1,-,N/A,,Overcast,110,2013-07-22 09:53:00
6:53 AM,64.9,60.1,84,29.91,10.0,East,3.5,-,N/A,,Overcast,80,2013-07-22 10:53:00
7:53 AM,66.0,60.1,81,29.90,10.0,ESE,6.9,-,N/A,,Overcast,120,2013-07-22 11:53:00
8:53 AM,69.1,60.1,73,29.90,10.0,SSE,5.8,-,N/A,,Overcast,150,2013-07-22 12:53:00
9:53 AM,72.0,61.0,68,29.90,10.0,South,6.9,-,N/A,,Overcast,170,2013-07-22 13:53:00
10:53 AM,75.0,64.0,69,29.88,10.0,South,6.9,-,N/A,,Scattered Clouds,170,2013-07-22 14:53:00
11:53 AM,78.1,66.0,66,29.88,10.0,SSW,10.4,-,N/A,,Mostly Cloudy,200,2013-07-22 15:53:00
12:53 PM,81.0,66.0,60,29.87,10.0,South,5.8,-,N/A,,Scattered Clouds,190,2013-07-22 16:53:00
1:53 PM,81.0,66.0,60,29.85,10.0,SSW,6.9,-,N/A,,Overcast,210,2013-07-22 17:53:00
2:53 PM,82.9,66.0,56,29.84,10.0,South,12.7,-,N/A,,Mostly Cloudy,190,2013-07-22 18:53:00
3:53 PM,82.0,64.9,56,29.82,10.0,SSW,8.1,-,N/A,,Scattered Clouds,210,2013-07-22 19:53:00
4:53 PM,84.0,64.0,51,29.80,10.0,WSW,11.5,-,N/A,,Clear,240,2013-07-22 20:53:00
5:53 PM,84.0,63.0,49,29.78,10.0,SSW,8.1,-,N/A,,Clear,210,2013-07-22 21:53:00
6:53 PM,82.9,63.0,51,29.76,10.0,SW,11.5,18.4,N/A,,Clear,230,2013-07-22 22:53:00
7:53 PM,81.0,62.1,52,29.75,10.0,SSW,8.1,-,N/A,,Clear,200,2013-07-22 23:53:00
8:53 PM,78.1,62.1,58,29.75,10.0,South,5.8,-,N/A,,Clear,190,2013-07-23 00:53:00
9:53 PM,73.9,61.0,64,29.76,10.0,South,5.8,-,N/A,,Clear,180,2013-07-23 01:53:00
10:53 PM,73.0,63.0,71,29.75,10.0,South,6.9,-,N/A,,Clear,190,2013-07-23 02:53:00
11:53 PM,72.0,64.0,76,29.76,10.0,South,8.1,-,N/A,,Clear,190,2013-07-23 03:53:00